Regional Weather Roundup
Issued by NWS

Home | Current Version | Previous Version | Graphics & Text | Print | Product List | Glossary On
Versions: 1 2 3 4 5 6 7 8 9 10 11 12 13 14 15 16 17 18 19 20 21 22 23 24 25 26 27 28 29 30 31 32 33 34 35 36 37 38 39 40 41 42 43 44 45 46 47 48 49 50
000
ASUS43 KLOT 061021
RWRIL

ILLINOIS REGIONAL WEATHER ROUNDUP
NATIONAL WEATHER SERVICE CHICAGO/ROMEOVILLE IL
500 AM CDT WED MAY 06 2015

NOTE: "FAIR" INDICATES FEW OR NO CLOUDS BELOW 12,000 FEET WITH NO
SIGNIFICANT WEATHER AND/OR OBSTRUCTIONS TO VISIBILITY.

* THESE STATIONS ARE NOT UNDER NWS QUALITY CONTROL. THEY ALSO MAY NOT
  REPORT WEATHER SUCH AS PRECIPITATION OR FOG.

ILZ001-002-007-009-015-016-024-061100-
NORTHWEST ILLINOIS

CITY           SKY/WX    TMP DP  RH WIND       PRES   REMARKS
MOLINE         CLOUDY    56  54  93 E9        30.11S FOG
STERLING*      CLOUDY    54  52  94 E12       30.13F VSB 1/2
SAVANNA*       CLOUDY    54  52  95 E7        30.13F FOG
$$

ILZ003-004-008-010-011-017-018-061100-
NORTH CENTRAL ILLINOIS

CITY           SKY/WX    TMP DP  RH WIND       PRES   REMARKS
ROCKFORD       FOG       50  49  96 E7        30.18S VSB 1/2
FREEPORT*      FOG       50  50  99 E9        30.16F VSB 1/2
ROCHELLE*      FOG       51  51 100 E7        30.16F VSB 3/4
DE KALB*       FOG       49  48  99 E7        30.16F VSB 1/2
PERU*          FOG       55  55  97 E10       30.15S VSB 1/4
$$

ILZ005-006-012>014-019>023-061100-
NORTHEAST ILLINOIS

CITY           SKY/WX    TMP DP  RH WIND       PRES   REMARKS
CHICAGO-OHARE  FOG       47  47 100 NE6       30.17F VSB 1/4
CHICAGO-MIDWAY FOG       51  50  96 E3        30.17F VSB 1/4
AURORA         FOG       51  49  92 E9        30.17S VSB 1/2
LANSING*       DRZL/FOG  49  48  94 CALM      30.18F VSB 1/2
JOLIET*        FOG       54  54  99 NE5       30.16F VSB 1/2
WAUKEGAN       FOG       44  44 100 E5        30.18S VSB 1/4
DUPAGE AIRPORT FOG       49  48  97 E8        30.17S VSB 1/2
KANKAKEE*      FOG       61  61  99 E7        30.16S VSB 1
WHEELING       FOG       45  45 100 NE3       30.19F VSB 1/4
MORRIS*        FOG       54  53  97 NE5       30.13S VSB 1/4
ROMEOVILLE*    DRZL/FOG  51  51 100 NE3       30.17S VSB 1/4
NORTHERLY ISL    N/A     47  46  97 N2          N/A
$$

LMZ740>746-061100-
SOUTHERN LAKE MICHIGAN

STATION/POSITION SKY/WX   TEMP    WIND        PRES    VSBY  WAVE
                          AIR SEA DIR/SP/G                  HT/PER
                          (F)     (DEG/KT/KT) (MB)    (MI)  (FT/S)
HARRISON CRIB              45      20/  2/  2   N/A
BURNHAM HARBOR             47      10/  2/  7   N/A
CALUMET HARBOR             47     340/  1/  4   N/A
BURNS HARBOR               52      40/  6/  8 1022.4S
MICHIGAN CITY              56      90/  5/  8   N/A
MICHIGAN CITY 6N           53 51  110/  4/  6   N/A           1
ST. JOSEPH                 54 50  130/  4/  6   N/A           1
$$

ILZ025>027-034>036-040-047-049-050-058-095>099-061100-
WEST-CENTRAL ILLINOIS

CITY           SKY/WX    TMP DP  RH WIND       PRES   REMARKS
QUINCY         CLEAR     65  56  72 S8        30.08S
GALESBURG*     PTCLDY    59  58  96 E6        30.10S FOG
MACOMB*          N/A     60  60 100 SE5       30.11S FOG
JACKSONVILLE*  MOCLDY    69  57  66 S7        30.10S
PITTSFIELD*    PTCLDY    63  56  79 SE5       30.11R
$$

ILZ028>032-037-038-041>044-048-051>054-059>061-061100-
CENTRAL ILLINOIS

CITY           SKY/WX    TMP DP  RH WIND       PRES   REMARKS
PONTIAC        DRZL/FOG  62  62 100 E7        30.15S VSB 1/4
BLOOMINGTON    PTCLDY    60  59  97 SE6       30.15S FOG
DECATUR        CLOUDY    59  53  80 E6        30.13S
PEORIA         CLEAR     61  58  90 E6        30.11S FOG
LACON*         FOG       57  56  96 E5        30.12F VSB 1/2
LINCOLN*       PTCLDY    61  58  89 CALM      30.10S
SPRINGFIELD    PTCLDY    67  56  67 S9        30.11S
TAYLORVILLE    CLOUDY    63  55  77 S7        30.12F
$$

ILZ033-039-045-046-055>057-062-063-061100-
EAST-CENTRAL ILLINOIS

CITY           SKY/WX    TMP DP  RH WIND       PRES   REMARKS
CHAMPAIGN      CLOUDY    63  56  78 S5        30.14F
DANVILLE*      CLEAR     59  56  89 CALM      30.13S
RANTOUL*       CLOUDY    62  60  93 CALM      30.14S FOG
MATTOON        FAIR      64  54  69 S7        30.14S
PARIS*         PTCLDY    60  55  82 CALM      30.16S
$$

ILZ079-100>102-061100-
SOUTHWEST ILLINOIS

CITY           SKY/WX    TMP DP  RH WIND       PRES   REMARKS
ALTON          PTCLDY    57  57 100 CALM      30.12R
BELLEVILLE     PTCLDY    58  58 100 CALM      30.11S
CAHOKIA*       CLEAR     62  57  83 S3        30.11S
SPARTA*        CLEAR     61  56  85 SE5       30.14S
$$

ILZ064>066-069>071-074>076-080>082-084>086-088>090-092>094-061100-
SOUTH-CENTRAL ILLINOIS

CITY           SKY/WX    TMP DP  RH WIND       PRES   REMARKS
CARBONDALE     CLEAR     57  53  86 CALM      30.14R
CAIRO*         CLEAR     55  54  95 CALM      30.14S
EFFINGHAM*     CLEAR     57  53  86 E3        30.16S
MARION         CLEAR     63  55  77 CALM      30.15S
MT. VERNON     CLEAR    N/A N/A N/A CALM      30.15S
CENTRALIA*     CLEAR     59  53  80 CALM      30.14R
SALEM*         CLEAR     63  56  79 CALM      30.15R
METROPOLIS*    CLEAR     56  56 100 CALM      30.14S FOG
$$

ILZ067-068-072-073-078-083-087-091-061100-
SOUTHEAST ILLINOIS

CITY           SKY/WX    TMP DP  RH WIND       PRES   REMARKS
LAWRENCEVILLE  CLEAR     59  54  83 CALM      30.16S
FLORA*         CLEAR     57  53  86 CALM      30.16R
FAIRFIELD*     CLEAR     59  55  87 CALM      30.14S
HARRISBURG*    CLEAR     56  55  95 CALM      30.16S
ROBINSON*      CLEAR     56  53  92 CALM      30.17S
CARMI*         CLEAR     58  51  78 MISG      30.15S
$$

ABBREVIATIONS USED IN REMARKS
   TC - TEMPERATURE IN CELSIUS
  WCI - WIND CHILL INDEX
   HX - HEAT INDEX
  VSB - VISIBILITY
$$




USA.gov is the U.S. government's official web portal to all federal, state and local government web resources and services.